Regional Weather Roundup
Issued by NWS Upton, NY

Current Version | Previous Version | Graphics & Text | Print | Product List | Glossary Off
Versions: 1 2 3 4 5 6 7 8 9 10 11 12 13 14 15 16 17 18 19 20 21 22 23 24 25 26 27 28 29 30 31 32 33 34 35 36 37 38 39 40 41 42 43 44 45 46 47 48 49 50

000
ASUS41 KOKX 230308
RWROKX

REGIONAL WEATHER ROUNDUP
NATIONAL WEATHER SERVICE NEW YORK NY
1000 PM EST SUN JAN 22 2017

NOTE: "FAIR" INDICATES FEW OR NO CLOUDS BELOW 12,000 FEET WITH NO
SIGNIFICANT WEATHER AND/OR OBSTRUCTIONS TO VISIBILITY.

NYZ071-072-176-178-NJZ106-104-230400-
NEW YORK CITY METRO AREA

CITY           SKY/WX    TMP DP  RH WIND       PRES   REMARKS
Central Park   CLOUDY    46  41  82 E10G22    29.81R
Wall St Helipt CLOUDY    47  41  80 NE18G26   29.79R
LaGuardia APRT CLOUDY    49  40  71 NE18      29.79R
Kennedy INTL   CLOUDY    48  44  86 NE18G31   29.79R
Breezy Point     N/A     43 N/A N/A E15G22      N/A
Newark/Liberty CLOUDY    49  41  74 NE17G24   29.79R
Teterboro      CLOUDY    47  41  80 E17G28    29.79R
$$

NYZ177-179-078>081-230400-
LONG ISLAND NEW YORK

CITY           SKY/WX    TMP DP  RH WIND       PRES   REMARKS
Jones Beach      N/A     45 N/A N/A E25G31      N/A
Matinecock PT  NOT AVBL
Farmingdale    CLOUDY    46  40  79 NE17G28   29.79R
MacArthur/ISP  CLOUDY    45  41  86 NE16G29   29.79R
Shirley        CLOUDY    44  41  89 NE8G22    29.82R
Westhampton    CLOUDY    45  39  79 NE13G23   29.82S
Southampton    NOT AVBL
Bridgehampton  NOT AVBL
East Hampton   CLOUDY    42  40  92 NE14G21   29.83S
Montauk          N/A     43  42  97 NE14G24   29.85S
$$

NYZ052-065-067-230400-
HUDSON VALLEY

CITY           SKY/WX    TMP DP  RH WIND       PRES   REMARKS
White Plains   MOCLDY    45  39  79 E17G25    29.80R
Newburgh       CLOUDY    45  41  87 E17G25    29.82R
Montgomery     CLOUDY    47  40  76 E15       29.80R
Poughkeepsie   CLOUDY    43  37  79 E9        29.84R
Albany         DRIZZLE   38  34  85 N5        29.87S WCI  34
$$

NJZ001-105-106-008-010-013-015-019>022-104-230400-
NEW JERSEY

CITY           SKY/WX    TMP DP  RH WIND       PRES   REMARKS
Newark/Liberty CLOUDY    49  41  74 NE17G24   29.79R
Teterboro      CLOUDY    47  41  80 E17G28    29.79R
Caldwell       CLOUDY    46  40  79 E24G35    29.80R
Somerville     CLOUDY    49  42  77 VRB5      29.75R
Linden         CLOUDY    48  42  80 E16       29.78R
Sussex         CLOUDY    47  44  90 NE10      29.79R
Andover          N/A     47  41  80 VRB3      29.77R
Trenton        CLOUDY    46  43  89 E22G30    29.73R
Millville      CLOUDY    48  48 100 NE14G24   29.67R FOG
Atlantic City  CLOUDY    48  45  89 NE18G30   29.67R
Wrightstown    CLOUDY    45  44  96 NE20      29.70R
Toms River     CLOUDY    45  44  97 NE22G28   29.73S
Belmar         CLOUDY    44  42  93 NE21G32   29.75R
$$

PAZ047>061-062-071-230400-
EASTERN PENNSYLVANIA

CITY           SKY/WX    TMP DP  RH WIND       PRES   REMARKS
Philadelphia   CLOUDY    47  44  90 NE13G24   29.72S
Allentown      CLOUDY    50  43  77 E13       29.74R
Scranton       CLOUDY    50  46  86 E8        29.72R
$$

CTZ002-004>006-009-010-012-RIZ004-006-007-MAZ004-011-015-230400-
SOUTHERN NEW ENGLAND
 IN CT

CITY           SKY/WX    TMP DP  RH WIND       PRES   REMARKS
Bradley INTL   DRIZZLE   39  36  89 N10       29.91R WCI  32
Hartford       CLOUDY    42  37  82 NE13      29.89R
Danbury        CLOUDY    42  38  85 E14G22    29.84R
Wtrbury/Oxford CLOUDY    41  34  75 NE13G18   29.85R
Bridgeport     CLOUDY    47  40  76 NE14      29.84R
Meriden        CLOUDY    44  38  79 NE7G18    29.87R
New Haven      CLOUDY    45  40  82 NE12      29.85R
Chester        CLOUDY    43  39  87 E13G22    29.84S
Groton         LGT RAIN  43  41  93 NE16      29.85R FOG
Wilimantic     CLOUDY    43  39  86 E13G21    29.90R

 IN RI

CITY           SKY/WX    TMP DP  RH WIND       PRES   REMARKS
Providence     DRIZZLE   41  38  89 NE13      29.91S FOG
Block Island   NOT AVBL
Westerly       CLOUDY    43  39  86 NE13G22   29.87S FOG
 IN MA

CITY           SKY/WX    TMP DP  RH WIND       PRES   REMARKS
Boston         CLOUDY    41  37  86 NE18      29.96S
Worcester      CLOUDY    35  33  92 E12G23    29.91R FOG     WCI  27
Westfield      CLOUDY    38  35  89 N9        29.91R WCI  31
Provincetown   CLOUDY    42  37  82 E20G25    29.95R
Nantucket      CLOUDY    43  39  86 E21G30    29.87R
$$

ANZ330-335-338-340-345-350-353-355-230400-
COASTAL MARINE OBSERVATIONS


STATION/POSITION TIME  SKY/WX   TEMP    WIND        PRES    VSBY  WAVE
                                AIR SEA DIR/SP/G                  HT/PER
                 (UTC)          (F)     (DEG/KT/KT) (MB)    (MI)  (FT/S)
NY HARB ENTRANCE 0150            45 43   60/ 25/ 31 1006.7          7/ 6
20 S FIRE ISLAND 0250            46 45   60/ 25/ 31 1006.0          8/ 7
GREAT SOUTH BAY  NOT AVBL
23 SSW MONTAUK P 0150            46 47   70/ 23/ 29 1008.9          7/ 6
15 E BARNEGAT LI 0230               47                N/A           9/ 6
HUDSON CANYON    0150            51 52              1004.2          9/ 6
KINGS POINT      0230            47 39              1008.6
EXECUTION ROCKS  0245            44      70/ 21/ 29   N/A
CENTRAL LI SOUND 0230            43      80/ 17/ 21   N/A           2/ 3
EASTERN LI SOUND NOT AVBL
ROBBINS REEF     0230            48      70/ 21/ 26 1008.0
$$


>>>>>>>>>>>>>>>>>>>>>>>>>>>> KEY <<<<<<<<<<<<<<<<<<<<<<<<<<<
>                                                          <
>     SKY/WX - Sky Condition/Present Weather               <
>     TMP    - Temperature in Fahrenheit                   <
>     DP     - Dew Point in Fahrenheit                     <
>     RH     - Relative Humidity in Percent                <
>     WIND   - Direction (from) and Speed in MPH           <
>     PRES   - Mean Sea Level Pressure (inches of Hg)      <
>     WCI    - Wind Chill Index                            <
>     VSB    - VISIBILITY IN MILES                         <
>     HX     - HEAT INDEX                                  <
>     TC     - TEMPERATURE IN CELSIUS                      <
>     VRB    - VARIABLE WIND DIRECTION                     <
>                                                          <
>>>>>>>>>>>>>>>>>>>>>>>>>>>> KEY <<<<<<<<<<<<<<<<<<<<<<<<<<<



USA.gov is the U.S. government's official web portal to all federal, state and local government web resources and services.